EW4353 Weather Reports


Display with metric or nautical units.
time (UTC)temp
F
wind
direction
speed
MPH
gust
MPH
rain 1hr
in
rain 24hr
in
rain mn
in
humidity
%
barometer
mb
20260504044530 52 229 0.0 0.0 0.00 0.00 0.00 67 1000.0
20260504043028 52 229 0.0 0.0 0.00 0.00 0.00 67 1000.3
20260504041524 51 229 0.0 0.0 0.00 0.00 0.00 67 1000.4
20260504040023 52 229 0.0 0.0 0.00 0.00 0.00 66 1000.6
20260504034523 53 229 0.0 0.0 0.00 0.00 0.00 64 1000.7
20260504033022 53 229 0.0 0.0 0.00 0.00 0.00 64 1000.7
20260504031522 52 229 0.0 0.0 0.00 0.00 0.00 66 1000.7
20260504030021 54 229 0.0 0.0 0.00 0.00 0.00 63 1000.8
20260504024520 56 229 0.0 0.0 0.00 0.00 0.00 60 1001.0
20260504023019 55 229 0.0 0.0 0.00 0.00 0.00 61 1001.1
20260504021518 56 229 0.0 0.0 0.00 0.00 0.00 60 1000.9
20260504020032 59 229 0.0 0.0 0.00 0.00 0.00 56 1001.0
20260504014517 61 229 0.0 0.0 0.00 0.00 0.00 53 1001.1
20260504013019 64 229 0.0 0.0 0.00 0.00 0.00 49 1001.2
20260504011514 66 229 0.0 0.0 0.00 0.00 0.00 44 1001.4
20260504010013 67 229 0.0 0.0 0.00 0.00 0.00 43 1001.5
20260504004531 69 229 0.0 0.0 0.00 0.00 0.00 39 1001.6
20260504003010 69 229 0.0 0.0 0.00 0.00 0.00 38 1001.8
20260504001521 71 229 0.0 0.0 0.00 0.00 0.00 38 1002.2
20260504000006 71 229 0.0 0.0 0.00 0.00 0.00 35 1002.5
20260503234507 71 229 0.0 0.0 0.00 0.00 0.00 36 1002.8
20260503233004 71 229 0.0 0.0 0.00 0.00 0.00 34 1002.9
20260503231502 72 229 0.0 0.0 0.00 0.00 0.00 34 1003.2
20260503230113 72 229 0.0 0.0 0.00 0.00 0.00 33 1003.3
20260503224604 73 229 0.0 0.0 0.00 0.00 0.00 33 1003.6
20260503223112 72 229 0.0 0.0 0.00 0.00 0.00 34 1003.8
20260503221557 72 229 0.0 0.0 0.00 0.00 0.00 31 1004.1
20260503220057 72 229 0.0 0.0 0.00 0.00 0.00 32 1004.5
20260503214557 72 229 0.0 0.0 0.00 0.00 0.00 34 1004.7
20260503213050 72 229 0.0 0.0 0.00 0.00 0.00 33 1004.9
20260503211546 71 229 0.0 0.0 0.00 0.00 0.00 33 1005.3
20260503210044 71 229 0.0 0.0 0.00 0.00 0.00 32 1005.8
20260503204544 71 229 0.0 0.0 0.00 0.00 0.00 35 1006.0
20260503203039 70 229 0.0 0.0 0.00 0.00 0.00 35 1006.4
20260503201541 70 229 0.0 0.0 0.00 0.00 0.00 32 1006.7
20260503200036 70 229 0.0 0.0 0.00 0.00 0.00 36 1006.9
20260503194540 70 229 0.0 0.0 0.00 0.00 0.00 36 1007.1
20260503193032 70 229 0.0 0.0 0.00 0.00 0.00 35 1007.7
20260503191530 69 229 0.0 0.0 0.00 0.00 0.00 34 1007.8
20260503190037 68 229 0.0 0.0 0.00 0.00 0.00 35 1008.2
20260503184524 67 229 0.0 0.0 0.00 0.00 0.00 35 1008.6
20260503183021 67 229 0.0 0.0 0.00 0.00 0.00 35 1009.0
20260503181537 68 229 0.0 0.0 0.00 0.00 0.00 35 1009.2
20260503180029 67 229 0.0 0.0 0.00 0.00 0.00 36 1009.5
20260503174512 66 229 0.0 0.0 0.00 0.00 0.00 39 1009.9
20260503173007 65 229 0.0 0.0 0.00 0.00 0.00 37 1010.2
20260503171510 65 229 0.0 0.0 0.00 0.00 0.00 37 1010.5
20260503081539 44 229 0.0 0.0 0.00 0.00 0.00 72 1011.8
20260503071537 42 229 0.0 0.0 0.00 0.00 0.00 76 1011.6